EW3206 Weather Reports


Display with metric or nautical units.
time (UTC)temp
F
wind
direction
speed
MPH
gust
MPH
rain 1hr
in
rain 24hr
in
rain mn
in
humidity
%
barometer
mb
20260902024312 56 213 0.0 1.0 0.00 0.00 0.00 87 17.8
20260902021311 56 212 0.0 1.0 0.00 0.00 0.00 87 18.2
20260902020312 56 213 0.0 2.0 0.00 0.00 0.00 87 18.1
20260902014311 56 213 0.0 2.0 0.00 0.00 0.00 87 18.1
20260902013312 56 194 0.0 4.0 0.00 0.00 0.00 87 18.2
20260902012312 56 220 1.0 2.0 0.00 0.00 0.00 87 18.3
20260902010311 56 238 0.0 2.0 0.00 0.00 0.00 87 18.1
20260902005311 56 246 0.0 2.0 0.00 0.00 0.00 87 18.0
20260902004311 56 244 0.0 1.0 0.00 0.00 0.00 86 18.0
20260902002311 56 288 0.0 0.0 0.00 0.00 0.00 86 18.2
20260902001311 56 288 0.0 0.0 0.00 0.00 0.00 86 18.2
20260902000312 56 288 0.0 0.0 0.00 0.00 0.00 85 18.2
20260901235310 57 288 0.0 0.0 0.00 0.00 0.00 85 18.3
20260901234310 57 288 0.0 0.0 0.00 0.00 0.00 85 18.4
20260901233311 57 288 0.0 0.0 0.00 0.00 0.00 85 18.5
20260901232311 57 288 0.0 0.0 0.00 0.00 0.00 84 18.5
20260901231311 58 288 0.0 0.0 0.00 0.00 0.00 84 18.6
20260901230311 58 288 0.0 0.0 0.00 0.00 0.00 84 18.7
20260901224310 58 288 0.0 0.0 0.00 0.00 0.00 83 18.6
20260901223310 58 288 0.0 0.0 0.00 0.00 0.00 83 18.8
20260901222311 58 288 0.0 0.0 0.00 0.00 0.00 83 18.8
20260901220311 58 288 0.0 0.0 0.00 0.00 0.00 83 18.7
20260901215311 58 288 0.0 0.0 0.00 0.00 0.00 83 18.4
20260901214311 58 288 1.0 1.0 0.00 0.00 0.00 83 18.5
20260901213311 58 288 0.0 0.0 0.00 0.00 0.00 82 19.1
20260901212314 58 288 0.0 0.0 0.00 0.00 0.00 83 19.1
20260901211311 58 288 0.0 0.0 0.00 0.00 0.00 82 19.1
20260901205311 58 288 0.0 0.0 0.00 0.00 0.00 81 19.1
20260901204311 59 288 0.0 0.0 0.00 0.00 0.00 80 19.0
20260901203311 59 288 0.0 0.0 0.00 0.00 0.00 80 19.0
20260901202311 59 288 0.0 0.0 0.00 0.00 0.00 80 19.0
20260901195311 60 288 0.0 0.0 0.00 0.00 0.00 77 18.8
20260901194311 60 288 0.0 0.0 0.00 0.00 0.00 77 18.7
20260901193311 61 288 0.0 0.0 0.00 0.00 0.00 75 18.7
20260901192311 61 288 0.0 0.0 0.00 0.00 0.00 74 18.7
20260901191311 62 288 0.0 0.0 0.00 0.00 0.00 73 18.7
20260901190311 62 288 0.0 1.0 0.00 0.00 0.00 72 18.9
20260901185310 63 288 0.0 1.0 0.00 0.00 0.00 70 18.8
20260901184311 64 288 0.0 1.0 0.00 0.00 0.00 69 18.8
20260901183311 64 288 0.0 0.0 0.00 0.00 0.00 68 18.7
20260901182311 65 288 0.0 3.0 0.00 0.00 0.00 66 18.6
20260901181310 66 303 1.0 4.0 0.00 0.00 0.00 65 18.6
20260901180311 66 304 1.0 6.0 0.00 0.00 0.00 64 18.6
20260901175311 67 321 1.0 4.0 0.00 0.00 0.00 63 18.6
20260901174311 67 271 4.0 8.0 0.00 0.00 0.00 60 18.7
20260901173310 68 290 1.0 6.0 0.00 0.00 0.00 60 18.7
20260901172311 69 286 3.0 7.0 0.00 0.00 0.00 58 18.7
20260901171311 70 310 1.0 7.0 0.00 0.00 0.00 59 18.8
20260901165311 70 343 4.0 9.0 0.00 0.00 0.00 55 18.8
20260901164310 70 273 3.0 8.0 0.00 0.00 0.00 55 18.7
20260901163311 70 322 4.0 8.0 0.00 0.00 0.00 55 18.6
20260901162311 70 240 3.0 10.0 0.00 0.00 0.00 56 18.6
20260901161310 71 320 6.0 10.0 0.00 0.00 0.00 55 18.6
20260901160311 71 317 1.0 9.0 0.00 0.00 0.00 56 18.5
20260901155310 71 295 5.0 12.0 0.00 0.00 0.00 54 18.4
20260901154311 71 317 3.0 11.0 0.00 0.00 0.00 56 18.6
20260901153311 72 287 5.0 11.0 0.00 0.00 0.00 53 18.4
20260901152311 73 313 4.0 10.0 0.00 0.00 0.00 51 18.3
20260901151311 73 292 3.0 10.0 0.00 0.00 0.00 54 18.3
20260901145310 71 306 2.0 12.0 0.00 0.00 0.00 54 18.4
20260901144311 71 299 5.0 12.0 0.00 0.00 0.00 57 18.5
20260901143311 71 324 4.0 10.0 0.00 0.00 0.00 54 18.4
20260901142311 71 324 5.0 12.0 0.00 0.00 0.00 57 18.5
20260901141311 70 319 5.0 13.0 0.00 0.00 0.00 57 18.5
20260901140310 69 342 7.0 12.0 0.00 0.00 0.00 55 18.3
20260901135311 69 360 6.0 13.0 0.00 0.00 0.00 55 18.3
20260901134311 69 291 5.0 13.0 0.00 0.00 0.00 59 18.4
20260901133310 69 313 5.0 13.0 0.00 0.00 0.00 58 18.5
20260901132311 69 24 6.0 13.0 0.00 0.00 0.00 56 18.4
20260901131311 69 261 4.0 14.0 0.00 0.00 0.00 56 18.4
20260901130311 70 355 6.0 14.0 0.00 0.00 0.00 56 18.4
20260901125310 70 333 5.0 16.0 0.00 0.00 0.00 57 18.4
20260901124311 70 292 7.0 15.0 0.00 0.00 0.00 55 18.4
20260901123310 72 336 8.0 18.0 0.00 0.00 0.00 55 18.3
20260901120310 69 286 6.0 17.0 0.00 0.00 0.00 58 18.4
20260901115311 69 315 5.0 16.0 0.00 0.00 0.00 59 18.4
20260901114311 68 340 4.0 13.0 0.00 0.00 0.00 62 18.3
20260901113311 68 290 8.0 16.0 0.00 0.00 0.00 60 18.3
20260901112310 68 305 6.0 17.0 0.00 0.00 0.00 61 18.2
20260901111311 68 290 7.0 14.0 0.00 0.00 0.00 62 18.3
20260901110310 69 299 7.0 15.0 0.00 0.00 0.00 60 18.3
20260901105311 69 242 7.0 18.0 0.00 0.00 0.00 62 18.3
20260901104311 68 271 10.0 19.0 0.00 0.00 0.00 62 18.3
20260901103310 68 291 6.0 13.0 0.00 0.00 0.00 65 18.3
20260901102311 68 296 8.0 15.0 0.00 0.00 0.00 66 18.3
20260901101311 67 308 6.0 12.0 0.00 0.00 0.00 67 18.1
20260901100310 67 295 10.0 17.0 0.00 0.00 0.00 68 18.3
20260901095311 67 266 9.0 14.0 0.00 0.00 0.00 70 18.2
20260901094310 67 302 6.0 11.0 0.00 0.00 0.00 70 18.1
20260901092310 67 335 6.0 13.0 0.00 0.00 0.00 70 18.0
20260901091310 66 346 3.0 11.0 0.00 0.00 0.00 74 17.9
20260901090311 66 273 4.0 9.0 0.00 0.00 0.00 75 17.9
20260901085311 66 315 4.0 10.0 0.00 0.00 0.00 76 18.0
20260901084311 66 316 5.0 14.0 0.00 0.00 0.00 76 17.8
20260901083311 66 253 4.0 12.0 0.00 0.00 0.00 78 17.6
20260901082311 66 288 6.0 10.0 0.00 0.00 0.00 79 17.5
20260901081311 66 304 7.0 11.0 0.00 0.00 0.00 80 17.4
20260901080310 65 273 2.0 8.0 0.00 0.00 0.00 87 17.2
20260901075311 65 275 3.0 8.0 0.00 0.00 0.00 87 17.0
20260901074311 64 273 3.0 9.0 0.00 0.00 0.00 88 17.0
20260901073311 64 280 3.0 9.0 0.00 0.00 0.00 90 17.0
20260901072311 63 283 3.0 8.0 0.00 0.00 0.00 90 17.0
20260901071311 63 273 1.0 8.0 0.00 0.00 0.00 91 16.8
20260901070311 62 252 2.0 8.0 0.00 0.00 0.00 91 16.8
20260901065310 62 265 2.0 7.0 0.00 0.00 0.00 91 16.7
20260901064310 62 243 2.0 9.0 0.00 0.00 0.00 91 16.6
20260901063310 62 244 2.0 6.0 0.00 0.00 0.00 91 16.6
20260901062311 62 260 3.0 6.0 0.00 0.00 0.00 92 16.3
20260901061311 62 235 2.0 7.0 0.00 0.00 0.00 92 16.2
20260901060310 62 257 4.0 9.0 0.00 0.00 0.00 92 16.4
20260901055311 61 253 4.0 9.0 0.00 0.00 0.00 92 16.2
20260901054311 61 255 2.0 4.0 0.00 0.00 0.00 93 16.1
20260901052311 61 257 2.0 7.0 0.00 0.00 0.00 93 16.0
20260901051310 61 250 2.0 6.0 0.00 0.00 0.00 92 15.9
20260901050311 60 259 2.0 4.0 0.00 0.00 0.00 92 15.7
20260901045311 60 240 1.0 4.0 0.00 0.00 0.00 92 15.6
20260901044311 60 239 1.0 3.0 0.00 0.00 0.00 92 15.6
20260901043311 60 250 1.0 6.0 0.00 0.00 0.00 92 15.6
20260901042311 60 251 2.0 6.0 0.00 0.00 0.00 92 15.5